Regional Weather Roundup
Issued by NWS Raleigh/Durham, NC

Home | Current Version | Previous Version | Text Only | Print | Product List | Glossary On
Versions: 1 2 3 4 5 6 7 8 9 10 11 12 13 14 15 16 17 18 19 20 21 22 23 24 25 26 27 28 29 30 31 32 33 34 35 36 37 38 39 40 41 42 43 44 45 46 47 48 49 50
000
ASUS42 KRAH 011810
RWRRAH
NORTH CAROLINA WEATHER ROUNDUP
NATIONAL WEATHER SERVICE RALEIGH NC
200 PM EDT TUE SEP 01 2015

NOTE: "FAIR" INDICATES FEW OR NO CLOUDS BELOW 12,000 FEET WITH NO
SIGNIFICANT WEATHER AND/OR OBSTRUCTIONS TO VISIBILITY.

NCZ001-053-055-056-065-067-011900-
WESTERN NORTH CAROLINA

CITY           SKY/WX    TMP DP  RH WIND       PRES   REMARKS
ASHEVILLE      MOSUNNY   86  61  42 VRB3      30.18F
JEFFERSON      PTSUNNY   78  55  43 E3        30.24S
MORGANTON      PTSUNNY   90  57  32 E3        30.17S
HICKORY        MOSUNNY   89  62  40 N9        30.12F
RUTHERFORDTON  PTSUNNY   87  63  44 N3        30.12F
MOUNT AIRY     PTSUNNY   86  66  51 N3        30.14S
BOONE          MOSUNNY   81  61  50 S5        30.24F
$$

NCZ021-022-025-041-071-084-088-011900-
CENTRAL NORTH CAROLINA

CITY           SKY/WX    TMP DP  RH WIND       PRES   REMARKS
CHARLOTTE      MOSUNNY   91  62  37 N6        30.11S
GREENSBORO     MOSUNNY   90  61  37 N5        30.10F
WINSTON-SALEM  MOSUNNY   88  61  40 SE7       30.12F
RALEIGH-DURHAM MOSUNNY   88  65  46 CALM      30.08F
FORT BRAGG     MOSUNNY   88  69  52 VRB2      30.06F
FAYETTEVILLE   MOSUNNY   87  68  52 VRB3      30.07F
BURLINGTON     MOSUNNY   90  65  43 NW6       30.08F
LAURINBURG     PTSUNNY   87  66  49 NE6       30.08F
$$

NCZ011-015-027-028-043-044-047-080-103-011900-
NORTHEASTERN NORTH CAROLINA

CITY           SKY/WX    TMP DP  RH WIND       PRES   REMARKS
ROCKY MT-WILSO MOSUNNY   88  69  53 CALM      30.08F
GREENVILLE     MOSUNNY   82  72  69 CALM      30.09F
WASHINGTON     MOSUNNY   79  70  74 CALM      30.08F
ELIZABETH CITY MOSUNNY   84  73  69 N6        30.06F
MANTEO         PTSUNNY   80  73  78 E7        30.06F
CAPE HATTERAS  SUNNY     84  75  74 VRB6      30.05F
$$

NCZ078-087-090-091-093-098-101-011900-
SOUTHEASTERN NORTH CAROLINA

CITY           SKY/WX    TMP DP  RH WIND       PRES   REMARKS
LUMBERTON      MOSUNNY   90  70  51 VRB3      30.07F HX  95
GOLDSBORO      MOSUNNY   85  71  62 VRB2      30.06F
KINSTON        MOSUNNY   82  70  65 NE5       30.09F
KENANSVILLE    PTSUNNY   82  69  63 CALM      30.09F
NEW BERN       CLOUDY    82  70  66 VRB6      30.08F
CHERRY POINT   MOSUNNY   87  70  56 N8        30.07F
BEAUFORT       MOSUNNY   81  74  79 SW7       30.06F
JACKSONVILLE   PTSUNNY   83  70  64 VRB5      30.07F
WILMINGTON     MOSUNNY   85  71  63 VRB6      30.07F
$$




USA.gov is the U.S. government's official web portal to all federal, state and local government web resources and services.